Date String (YYYY-MM-DD hh:mm:ss) UTC,Instrument flags,Ambient pressure (hPa),Sample flow (lpm),Bypass flow (lpm),Sample temperature (°C),Ambient temperature (°C),ASC tube jacket temperature (°C),LED temperature (°C),Box temperature (°C),Sample RH (%),Span deviation,Mass concentration (μg/m³),Mass concentration (μg/m³),Mass concentration (μg/m³)
DateTimeUTC,F1_M11,P_M11,Q1_M11,Q2_M11,T1_M11,T2_M11,T3_M11,T4_M11,T5_M11,U1_M11,ZSPAN_M11,X2_M11,X0_M11,X1_M11
2023-03-10 13:00:00,,0819.9,5.01,0.00,21.9,21.5,00.0,30.6,23.7,16.0,-001.0,0011.49,0015.02,0011.19
2023-03-10 13:01:00,,0819.9,5.01,0.00,22.0,22.5,00.0,30.6,24.0,15.9,-001.3,0011.48,0014.96,0011.19
2023-03-10 13:02:00,,0819.9,5.01,0.00,22.1,22.5,00.0,30.6,24.0,15.8,-001.7,0011.49,0014.94,0011.19
2023-03-10 13:03:00,,0819.9,5.02,0.00,22.1,22.0,00.0,30.7,23.9,15.7,-002.0,0011.52,0015.02,0011.21
2023-03-10 13:04:00,,0819.9,5.00,0.00,22.1,21.5,00.0,30.7,23.8,15.7,-002.3,0011.54,0015.08,0011.23
2023-03-10 13:05:00,,0819.9,5.00,0.00,22.1,21.0,00.0,30.7,23.7,15.8,-002.4,0011.54,0014.98,0011.22
2023-03-10 13:06:00,,0819.9,5.00,0.00,22.0,20.7,00.0,30.7,23.6,15.8,-002.3,0011.54,0014.97,0011.20
2023-03-10 13:07:00,,0819.9,5.00,0.00,22.0,20.4,00.0,30.7,23.5,15.8,-002.5,0011.58,0015.18,0011.23
2023-03-10 13:08:00,,0820.0,4.99,0.00,21.9,20.3,00.0,30.7,23.5,15.9,-002.3,0011.62,0014.95,0011.27
2023-03-10 13:09:00,,0820.0,5.00,0.00,21.9,20.2,00.0,30.7,23.5,15.9,-002.4,0011.64,0014.88,0011.27
2023-03-10 13:10:00,,0819.8,4.99,0.00,21.9,20.2,00.0,30.7,23.5,16.0,-002.4,0011.62,0014.90,0011.25
2023-03-10 13:11:00,,0819.8,5.00,0.00,21.9,20.1,00.0,30.7,23.5,16.0,-002.3,0011.60,0015.09,0011.23
2023-03-10 13:12:00,,0819.9,5.00,0.00,21.8,20.1,00.0,30.7,23.5,16.0,-002.2,0011.61,0015.27,0011.22
2023-03-10 13:13:00,,0819.9,4.99,0.00,21.8,20.0,00.0,30.6,23.4,16.0,-001.9,0011.62,0015.34,0011.22
2023-03-10 13:14:00,,0820.1,5.00,0.00,21.8,21.0,00.0,30.6,23.6,16.0,-001.8,0011.61,0015.31,0011.22
2023-03-10 13:15:00,,0820.2,5.02,0.00,22.0,22.2,00.0,30.6,23.9,15.9,-001.5,0011.54,0015.16,0011.17
2023-03-10 13:16:00,,0820.2,4.98,0.00,22.1,22.9,00.0,30.7,24.1,15.8,-001.4,0011.49,0015.08,0011.14
2023-03-10 13:17:00,,0820.0,4.98,0.00,22.1,22.4,00.0,30.7,24.0,15.7,-001.6,0011.45,0014.76,0011.12
2023-03-10 13:18:00,,0819.9,4.99,0.00,22.1,21.9,00.0,30.7,24.0,15.7,-001.3,0011.42,0014.60,0011.10
2023-03-10 13:19:00,,0819.9,4.99,0.00,22.1,21.4,00.0,30.8,23.8,15.7,-001.3,0011.42,0014.59,0011.09
2023-03-10 13:20:00,,0819.9,5.01,0.00,22.0,20.8,00.0,30.8,23.6,15.8,-001.2,0011.40,0014.55,0011.10
2023-03-10 13:21:00,,0819.9,4.99,0.00,22.0,20.4,00.0,30.8,23.5,15.8,-001.3,0011.41,0014.55,0011.11
2023-03-10 13:22:00,,0819.9,5.00,0.00,21.9,20.1,00.0,30.7,23.4,15.9,-001.4,0011.46,0014.43,0011.15
2023-03-10 13:23:00,,0820.0,5.00,0.00,21.9,20.0,00.0,30.7,23.4,15.9,-001.3,0011.46,0014.29,0011.17
2023-03-10 13:24:00,,0819.9,5.01,0.00,21.9,20.0,00.0,30.7,23.4,15.9,-001.7,0011.45,0014.28,0011.16
2023-03-10 13:25:00,,0819.9,5.00,0.00,21.8,19.9,00.0,30.7,23.4,16.0,-001.9,0011.48,0014.37,0011.17
2023-03-10 13:26:00,,0819.9,5.00,0.00,21.8,20.0,00.0,30.7,23.4,16.0,-001.9,0011.56,0014.52,0011.20
2023-03-10 13:27:00,,0819.8,5.02,0.00,21.9,21.1,00.0,30.6,23.6,16.0,-001.7,0011.61,0014.62,0011.25
2023-03-10 13:28:00,,0819.8,5.00,0.00,22.0,22.3,00.0,30.7,23.9,15.9,-001.4,0011.67,0014.72,0011.29
2023-03-10 13:29:00,,0819.9,4.99,0.00,22.1,22.7,00.0,30.7,24.0,15.8,-001.4,0011.71,0014.83,0011.32
2023-03-10 13:30:00,,0819.9,4.98,0.00,22.1,22.2,00.0,30.7,23.9,15.8,-001.1,0011.74,0014.88,0011.35
2023-03-10 13:31:00,,0819.9,5.00,0.00,22.1,21.6,00.0,30.8,23.9,15.8,-000.7,0011.74,0014.85,0011.36
2023-03-10 13:32:00,,0819.9,5.01,0.00,22.1,21.2,00.0,30.8,23.8,15.8,-000.3,0011.76,0014.83,0011.38
2023-03-10 13:33:00,,0819.9,4.99,0.00,22.0,20.8,00.0,30.8,23.7,15.8,-000.1,0011.75,0014.77,0011.37
2023-03-10 13:34:00,,0819.9,5.00,0.00,22.0,20.6,00.0,30.8,23.6,15.9,-000.2,0011.77,0014.81,0011.38
2023-03-10 13:35:00,,0819.9,4.99,0.00,22.0,20.4,00.0,30.7,23.5,15.9,-000.1,0011.78,0014.85,0011.38
2023-03-10 13:36:00,,0819.9,4.99,0.00,21.9,20.2,00.0,30.7,23.4,16.0,-000.0,0011.77,0014.80,0011.36
2023-03-10 13:37:00,,0819.8,5.01,0.00,21.9,20.0,00.0,30.7,23.4,16.0,-000.2,0011.79,0014.84,0011.36
2023-03-10 13:38:00,,0819.7,5.01,0.00,21.8,19.8,00.0,30.7,23.3,16.1,-000.1,0011.80,0014.84,0011.35
2023-03-10 13:39:00,,0819.5,5.00,0.00,21.8,19.8,00.0,30.7,23.3,16.1,-000.4,0011.75,0014.75,0011.33
2023-03-10 13:40:00,,0819.7,5.01,0.00,21.8,20.7,00.0,30.6,23.5,16.1,-000.5,0011.72,0015.10,0011.32
2023-03-10 13:41:00,,0819.8,4.98,0.00,21.9,21.9,00.0,30.6,23.8,16.0,-000.4,0011.67,0015.06,0011.30
2023-03-10 13:42:00,,0819.7,5.00,0.00,22.0,22.5,00.0,30.7,24.0,15.9,-000.6,0011.68,0015.08,0011.30
2023-03-10 13:43:00,,0819.5,4.97,0.00,22.1,21.9,00.0,30.7,23.9,15.9,-001.0,0011.71,0015.20,0011.31
2023-03-10 13:44:00,,0819.4,4.99,0.00,22.0,21.3,00.0,30.7,23.7,15.9,-001.2,0011.73,0015.45,0011.30
2023-03-10 13:45:00,,0819.6,5.00,0.00,22.0,20.7,00.0,30.7,23.5,16.0,-001.2,0011.72,0015.45,0011.29
2023-03-10 13:46:00,,0819.7,5.01,0.00,21.9,20.3,00.0,30.7,23.3,16.1,-001.3,0011.72,0015.44,0011.29
2023-03-10 13:47:00,,0819.8,4.99,0.00,21.8,19.9,00.0,30.7,23.1,16.2,-001.1,0011.72,0015.37,0011.32
2023-03-10 13:48:00,,0819.6,5.00,0.00,21.7,19.6,00.0,30.6,23.0,16.3,-001.0,0011.73,0015.33,0011.35
2023-03-10 13:49:00,,0819.5,5.01,0.00,21.6,19.5,00.0,30.6,23.0,16.4,-001.2,0011.72,0015.29,0011.37
2023-03-10 13:50:00,,0819.7,5.00,0.00,21.6,19.7,00.0,30.6,23.1,16.4,-001.4,0011.74,0015.32,0011.40
2023-03-10 13:51:00,,0819.9,5.01,0.00,21.7,21.0,00.0,30.5,23.4,16.3,-001.2,0011.71,0015.17,0011.36
2023-03-10 13:52:00,,0819.9,5.00,0.00,21.8,22.2,00.0,30.5,23.7,16.2,-001.4,0011.70,0015.01,0011.33
2023-03-10 13:53:00,,0819.6,4.99,0.00,21.9,22.3,00.0,30.6,23.8,16.1,-001.4,0011.70,0015.29,0011.29
2023-03-10 13:54:00,,0819.4,5.00,0.00,21.9,21.7,00.0,30.6,23.7,16.1,-001.3,0011.66,0016.50,0011.26
2023-03-10 13:55:00,,0819.8,5.00,0.00,21.9,21.2,00.0,30.6,23.6,16.1,-001.0,0011.59,0016.87,0011.23
2023-03-10 13:56:00,,0819.9,5.00,0.00,21.9,20.7,00.0,30.6,23.4,16.2,-001.2,0011.54,0017.87,0011.19
2023-03-10 13:57:00,,0819.8,5.00,0.00,21.8,20.3,00.0,30.6,23.2,16.3,-000.8,0011.54,0017.91,0011.16
2023-03-10 13:58:00,,0819.5,5.00,0.00,21.7,20.0,00.0,30.6,23.1,16.3,-000.7,0011.53,0017.91,0011.14
2023-03-10 13:59:00,,0819.6,4.99,0.00,21.6,19.8,00.0,30.6,23.1,16.4,-000.6,0011.49,0017.86,0011.11
